{"data":{"norad_id":60154,"epoch":"2026-09-21T20:51:35.830944Z","epoch_age_seconds":63294,"freshness":"FRESH","line1":"1 60154U 24120V   26264.86916471 -.00000474  00000+0 -28855-5 0  9996","line2":"2 60154  53.1597 125.0341 0001395  91.1673 268.9489 15.34384867126463","mean_motion":15.34384867,"eccentricity":0.0001395,"inclination_deg":53.1597,"raan_deg":125.0341,"arg_perigee_deg":91.1673,"mean_anomaly_deg":268.9489,"bstar":-2.8855e-6,"rev_number":12646,"period_min":93.848683662754,"perigee_km":461.79391555385,"apogee_km":463.70252252997,"semimajor_km":6840.8852190419,"source":"CELESTRAK","updated_at":"2026-09-22T09:00:49.180636Z"}}